Eureka, Nunavut

6:55 PM CDT on May 27, 2017 (GMT -0500)
Eureka

Weather History for CWEU - February, 2014

Change the Weather History Date:

Friday, February 21, 2014

  Actual Average Record
Temperature  
Mean Temperature -36 °F -  
Max Temperature -30 °F -30 °F -7 °F (2015)
Min Temperature -42 °F -43 °F -55 °F (2013)
Degree Days  
Heating Degree Days 101    
Moisture  
Dew Point -42 °F    
Average Humidity 64    
Maximum Humidity 75    
Minimum Humidity 47    
Precipitation  
Precipitation 0.00 in 0.00 in - ()
Sea Level Pressure  
Sea Level Pressure 30.00 in    
Wind  
Wind Speed 2 mph ()    
Max Wind Speed 4 mph    
Max Gust Speed -    
Visibility 14.1 miles    
Events Snow    
Averages and records for this station are not official NWS values.
T = Trace of Precipitation, MM = Missing Value Source: Averaged Metar Reports

Daily Weather History Graph

Daily Weather History Graph

Search for Another Location

Airport or City:

Trip Planner

Search our weather history database for the weather conditions in past years. The results will help you decide how hot, cold, wet, or windy it might be!

Date:

Astronomy

Feb. 21, 2014 Rise Set
Actual Time 10:48 AM CST 1:09 PM CST
Civil Twilight 7:40 AM CST 4:17 PM CST
Nautical Twilight 5:18 AM CST 6:40 PM CST
Astronomical Twilight 2:41 AM CST 9:22 PM CST
Moon No Moon Rise No Moon Set
Length of Visible Light 8h 37m
Length of Day
2h 21m
Waning Gibbous, 60% of the Moon is Illuminated
Feb 21
Waning Gibbous
Feb 22
Last Quarter
Mar 1
New
Mar 8
First Quarter
Mar 16
Full

Hourly Weather History & Observations

Time (CST) Temp. Windchill Dew Point Humidity Pressure Visibility Wind Dir Wind Speed Gust Speed Precip Events Conditions
12:00 AM -37 °F - -45 °F 47% 29.94 in 15 mi South 3.5 mph - - Snow Snow
12:00 AM -36.4 °F - -45.4 °F 61% 29.94 in 15.0 mi South 2.3 mph - N/A   Clear
1:00 AM -32.8 °F - -43.6 °F 56% 29.94 in 15.0 mi South 2.3 mph - N/A   Clear
2:00 AM -36.4 °F -49.4 °F -43.6 °F 67% 29.95 in 15.0 mi SSE 3.5 mph - N/A   Overcast
2:19 AM - - - N/A% - 15.0 mi SSE 3.5 mph - N/A   Overcast
3:00 AM -34.6 °F -47.4 °F -41.8 °F 68% 29.96 in 15.0 mi South 3.5 mph - N/A   Overcast
4:00 AM -32.8 °F - -40.0 °F 68% 29.96 in 15.0 mi Calm Calm - N/A   Overcast
5:00 AM -32.8 °F - -40.0 °F 68% 29.96 in 15.0 mi Calm Calm - N/A   Mostly Cloudy
6:00 AM -32 °F - -39 °F 52% 29.96 in 15 mi Calm Calm - -   Partly Cloudy
6:00 AM -31.0 °F - -38.2 °F 68% 29.96 in 15.0 mi Calm Calm - N/A   Mostly Cloudy
6:53 AM - - - N/A% - 15.0 mi Calm Calm - N/A   Unknown
7:00 AM -31.0 °F - -40.0 °F 62% 29.97 in 15.0 mi Calm Calm - N/A Snow Light Snow
8:00 AM -32.8 °F - -40.0 °F 68% 29.98 in 10.0 mi SSE 2.3 mph - N/A   Mostly Cloudy
9:00 AM -32.8 °F - -40.0 °F 68% 29.99 in 10.0 mi Calm Calm - N/A   Overcast
10:00 AM -32.8 °F - -40.0 °F 68% 29.99 in 15.0 mi SSE 2.3 mph - N/A   Overcast
11:00 AM -32.8 °F - -40.0 °F 68% 30.00 in 15.0 mi Calm Calm - N/A Snow Light Snow
12:00 PM -34 °F - -41 °F 49% 30.00 in 7 mi South 2.3 mph - - Snow Light Snow
12:00 PM -34.6 °F - -41.8 °F 68% 30.00 in 7.0 mi South 2.3 mph - N/A Snow Light Snow
1:00 PM -34.6 °F - -43.6 °F 61% 30.01 in 15.0 mi Calm Calm - N/A Snow Light Snow
2:00 PM -36.4 °F - -45.4 °F 61% 30.03 in 15.0 mi Calm Calm - N/A Snow Light Snow
2:53 PM - - - N/A% - 15.0 mi Calm Calm - N/A   Overcast
3:00 PM -36.4 °F - -43.6 °F 67% 30.04 in 15.0 mi Calm Calm - N/A   Overcast
4:00 PM -34.6 °F - -41.8 °F 68% 30.05 in 15.0 mi SE 2.3 mph - N/A   Mostly Cloudy
5:00 PM -36.4 °F - -43.6 °F 67% 30.06 in 15.0 mi Calm Calm - N/A   Overcast
6:00 PM -36 °F - -42 °F 57% 30.08 in 15 mi SE 2.3 mph - -   Partly Cloudy
6:00 PM -36.4 °F - -41.8 °F 75% 30.08 in 15.0 mi SE 2.3 mph - N/A   Partly Cloudy
7:00 PM -36.4 °F - -43.6 °F 67% 30.08 in 15.0 mi SSE 2.3 mph - N/A   Clear
7:20 PM - - - N/A% - 15.0 mi ESE 2.3 mph - N/A   Clear
8:00 PM -40.0 °F - -45.4 °F 74% 30.08 in 15.0 mi Calm Calm - N/A   Clear
9:00 PM -38.2 °F - -45.4 °F 67% 30.09 in 15.0 mi Calm Calm - N/A   Clear